Regional Weather Roundup
Issued by NWS Spokane, WA

Home | Current Version | Previous Version | Text Only | Print | Product List | Glossary On
Versions: 1 2 3 4 5 6 7 8 9 10 11 12 13 14 15 16 17 18 19 20 21 22 23 24 25 26 27 28 29 30 31 32 33 34 35 36 37 38 39 40 41 42 43 44 45 46 47 48 49 50
000
NZUS01 KOTX 031300
RWROTX
EASTERN WASHINGTON/NORTHERN IDAHO ROUNDUP
NATIONAL WEATHER SERVICE, SPOKANE WA
500 AM PST TUE MAR 03 2015

Note: "fair" indicated few or no clouds below 12,000 feet with no
significant weather and/or obstructions to visibility.

...NORTHEAST WASHINGTON AND NORTHERN IDAHO PANHANDLE...

CITY           SKY/WX    TMP DP  RH WIND       PRES   REMARKS
SPOKANE INTL   CLEAR     22  15  75 NE10      30.13S WCI  11
SPOKANE DOWNTO CLEAR     22  16  78 CALM      30.18R
COEUR D ALENE  CLEAR     23   9  54 NE14      30.15R WCI  11
DEER PARK      CLEAR     12  10  92 NE5       30.17R WCI   4

...SOUTHEAST WASHINGTON AND SOUTHERN IDAHO PANHANDLE...

CITY           SKY/WX    TMP DP  RH WIND       PRES   REMARKS
WALLA WALLA    CLEAR     27  23  85 S6        30.17R WCI  20
PULLMAN/MOSCOW MOCLDY    24  17  74 N9        30.11R WCI  14
LOWELL           N/A     29  24  82 CALM      30.14R

...COLUMBIA BASIN...

CITY           SKY/WX    TMP DP  RH WIND       PRES   REMARKS
EPHRATA        CLEAR     31   9  39 N10       30.21R WCI  22
MOSES LAKE     CLEAR     25  15  66 N8        30.22R WCI  16
TRI CITIES     CLEAR     26  21  81 NW6       30.25R WCI  19
HERMISTON      PTCLDY    33  23  66 E5        30.22R WCI  29
PENDLETON      CLEAR     28  19  69 CALM      30.17R

...EAST SLOPES CASCADES...

CITY           SKY/WX    TMP DP  RH WIND       PRES   REMARKS
THE DALLES     CLOUDY    42  23  46 E3        30.23R
YAKIMA         CLOUDY    35  28  75 NE3       30.22R
ELLENSBURG     CLEAR     28  20  71 N3        30.17R
WENATCHEE      CLEAR     32  15  49 CALM      30.22R
OMAK           CLEAR     30   5  34 N9        30.25R WCI  22

...SOUTHERN BRITISH COLUMBIA...

CITY           SKY/WX    TMP DP  RH WIND       PRES   REMARKS

...WESTERN MONTANA...

CITY           SKY/WX    TMP DP  RH WIND       PRES   REMARKS
MISSOULA       CLEAR     15   0  51 E10       30.15R WCI   2

...NEIGHBORING CITIES...

CITY           SKY/WX    TMP DP  RH WIND       PRES   REMARKS
SEATTLE        CLEAR     35  30  82 NE3       30.21S



USA.gov is the U.S. government's official web portal to all federal, state and local government web resources and services.